TimeEST,TemperatureF,Dew PointF,Humidity,Sea Level PressureIn,VisibilityMPH,Wind Direction,Wind SpeedMPH,Gust SpeedMPH,PrecipitationIn,Events,Conditions,WindDirDegrees,DateUTC
12:15 AM,50.9,48.6,92,30.19,10.0,SSE,8.1,-,N/A,,Drizzle,150,2013-02-11 05:15:00
12:35 AM,50.9,49.1,94,30.19,10.0,SSE,9.2,-,0.01,,Light Drizzle,160,2013-02-11 05:35:00
12:55 AM,51.3,49.3,93,30.18,10.0,South,4.6,-,0.01,Rain,Light Rain,170,2013-02-11 05:55:00
1:15 AM,51.8,50.0,94,30.18,10.0,South,6.9,-,N/A,,Drizzle,180,2013-02-11 06:15:00
1:35 AM,52.7,50.5,92,30.16,10.0,SSE,8.1,-,N/A,,Light Drizzle,160,2013-02-11 06:35:00
1:55 AM,53.2,51.3,93,30.14,10.0,South,8.1,-,N/A,,Overcast,170,2013-02-11 06:55:00
2:15 AM,53.8,51.8,93,30.15,10.0,South,5.8,-,N/A,,Overcast,180,2013-02-11 07:15:00
2:35 AM,54.5,52.2,92,30.15,10.0,SSE,5.8,-,N/A,,Overcast,160,2013-02-11 07:35:00
2:55 AM,54.5,52.5,93,30.14,10.0,South,5.8,-,N/A,Rain,Light Rain,180,2013-02-11 07:55:00
3:15 AM,54.9,52.7,92,30.12,10.0,SSE,8.1,-,N/A,,Light Drizzle,160,2013-02-11 08:15:00
3:35 AM,55.4,53.1,92,30.11,10.0,South,6.9,-,N/A,,Light Drizzle,170,2013-02-11 08:35:00
3:55 AM,55.9,54.0,93,30.09,10.0,South,10.4,-,N/A,,Overcast,170,2013-02-11 08:55:00
4:15 AM,56.8,54.5,92,30.09,10.0,South,9.2,16.1,N/A,Rain,Light Rain,170,2013-02-11 09:15:00
4:35 AM,57.2,55.0,92,30.09,10.0,South,9.2,17.3,N/A,,Light Drizzle,170,2013-02-11 09:35:00
4:55 AM,57.6,55.4,92,30.09,7.0,South,10.4,18.4,N/A,Rain,Light Rain,170,2013-02-11 09:55:00
5:15 AM,58.1,55.8,92,30.08,5.0,South,6.9,-,N/A,,Drizzle,170,2013-02-11 10:15:00
5:35 AM,58.1,56.3,94,30.10,5.0,South,6.9,-,0.01,Rain,Rain,170,2013-02-11 10:35:00
5:55 AM,58.6,56.7,93,30.10,7.0,South,8.1,-,0.03,Rain,Light Rain,180,2013-02-11 10:55:00
6:15 AM,59.0,56.7,92,30.10,10.0,South,6.9,-,0.01,Rain,Light Rain,180,2013-02-11 11:15:00
6:55 AM,59.0,56.8,93,30.10,7.0,South,6.9,-,0.03,Rain,Rain,190,2013-02-11 11:55:00
7:15 AM,59.0,56.8,93,30.09,10.0,South,5.8,-,0.01,Rain,Light Rain,180,2013-02-11 12:15:00
7:35 AM,59.0,57.0,93,30.10,10.0,South,4.6,-,0.01,,Light Drizzle,190,2013-02-11 12:35:00
7:55 AM,59.0,56.8,93,30.10,10.0,South,4.6,-,0.02,Rain,Rain,190,2013-02-11 12:55:00
8:15 AM,59.0,57.2,94,30.08,10.0,South,5.8,-,0.01,Rain,Rain,190,2013-02-11 13:15:00
8:35 AM,59.2,57.2,93,30.08,10.0,South,5.8,-,0.01,Rain,Light Rain,180,2013-02-11 13:35:00
8:55 AM,59.4,57.6,94,30.09,10.0,South,5.8,-,0.01,,Overcast,190,2013-02-11 13:55:00
9:15 AM,59.7,57.4,92,30.09,10.0,South,5.8,-,N/A,,Overcast,180,2013-02-11 14:15:00
9:35 AM,60.1,57.7,92,30.09,10.0,SSW,5.8,-,N/A,,Overcast,200,2013-02-11 14:35:00
9:55 AM,60.3,57.9,92,30.08,10.0,SSW,5.8,-,N/A,,Overcast,200,2013-02-11 14:55:00
10:15 AM,60.4,58.1,92,30.08,10.0,South,6.9,-,N/A,,Overcast,190,2013-02-11 15:15:00
10:35 AM,60.8,58.1,91,30.07,10.0,South,4.6,-,N/A,,Overcast,180,2013-02-11 15:35:00
10:55 AM,61.0,58.3,91,30.06,10.0,South,5.8,-,N/A,,Overcast,180,2013-02-11 15:55:00
11:15 AM,61.2,58.5,91,30.04,10.0,South,8.1,-,N/A,,Overcast,180,2013-02-11 16:15:00
11:35 AM,61.2,58.5,91,30.05,10.0,SSW,6.9,-,N/A,,Overcast,200,2013-02-11 16:35:00
11:55 AM,61.9,59.0,90,30.05,10.0,SSW,10.4,16.1,N/A,,Overcast,200,2013-02-11 16:55:00
12:15 PM,62.6,59.2,89,30.05,10.0,SSW,8.1,19.6,N/A,,Overcast,200,2013-02-11 17:15:00
12:35 PM,62.8,59.2,88,30.04,10.0,SSW,9.2,16.1,N/A,,Overcast,200,2013-02-11 17:35:00
12:55 PM,63.3,59.4,87,30.04,10.0,SSW,10.4,-,N/A,,Overcast,210,2013-02-11 17:55:00
1:15 PM,63.5,59.0,85,30.02,10.0,SSW,10.4,21.9,N/A,,Overcast,210,2013-02-11 18:15:00
1:35 PM,63.7,59.0,85,30.00,10.0,SSW,8.1,17.3,N/A,,Overcast,200,2013-02-11 18:35:00
1:55 PM,63.9,59.0,84,29.99,10.0,SSW,11.5,18.4,N/A,,Overcast,200,2013-02-11 18:55:00
2:15 PM,63.9,59.0,84,30.01,10.0,SW,6.9,-,N/A,Rain,Light Rain,220,2013-02-11 19:15:00
2:35 PM,63.7,59.4,86,30.00,10.0,SW,5.8,-,N/A,,Light Drizzle,220,2013-02-11 19:35:00
2:55 PM,63.7,59.2,85,30.00,10.0,Calm,Calm,-,N/A,,Overcast,0,2013-02-11 19:55:00
3:15 PM,63.7,59.2,85,30.00,10.0,SSW,10.4,-,N/A,Rain,Light Rain,200,2013-02-11 20:15:00
3:35 PM,63.5,59.5,87,29.99,10.0,SSW,6.9,-,N/A,Rain,Light Rain,200,2013-02-11 20:35:00
3:55 PM,63.7,59.5,86,29.98,10.0,SSW,10.4,-,N/A,Rain,Light Rain,210,2013-02-11 20:55:00
4:15 PM,63.5,59.5,87,29.98,10.0,SSW,9.2,-,N/A,Rain,Light Rain,210,2013-02-11 21:15:00
4:35 PM,63.5,59.2,86,29.97,10.0,SSW,10.4,16.1,N/A,,Overcast,200,2013-02-11 21:35:00
4:55 PM,63.1,59.0,86,29.97,10.0,South,11.5,19.6,N/A,,Light Drizzle,190,2013-02-11 21:55:00
5:55 PM,62.4,59.2,89,29.95,10.0,Calm,Calm,-,N/A,,Overcast,0,2013-02-11 22:55:00
6:15 PM,62.6,59.4,89,30.00,10.0,WNW,8.1,-,N/A,,Mostly Cloudy,300,2013-02-11 23:15:00
6:35 PM,62.6,59.4,89,30.01,10.0,West,3.5,-,N/A,,Mostly Cloudy,270,2013-02-11 23:35:00
6:55 PM,62.6,58.3,86,30.00,10.0,SW,6.9,-,N/A,,Scattered Clouds,220,2013-02-11 23:55:00
7:15 PM,63.0,56.7,80,29.99,10.0,SSW,11.5,18.4,N/A,,Scattered Clouds,210,2013-02-12 00:15:00
7:35 PM,63.0,55.4,76,30.00,10.0,SW,8.1,17.3,N/A,,Clear,230,2013-02-12 00:35:00
7:55 PM,62.8,52.7,70,30.01,10.0,SW,9.2,17.3,N/A,,Clear,220,2013-02-12 00:55:00
8:15 PM,61.9,52.7,72,30.00,10.0,SSW,9.2,-,N/A,,Clear,210,2013-02-12 01:15:00
8:35 PM,61.3,52.5,73,30.00,10.0,SSW,9.2,-,N/A,,Clear,210,2013-02-12 01:35:00
8:55 PM,61.0,52.2,73,30.00,10.0,SSW,8.1,-,N/A,,Clear,210,2013-02-12 01:55:00
9:15 PM,60.3,52.0,74,30.00,10.0,SW,6.9,-,N/A,,Clear,220,2013-02-12 02:15:00
9:35 PM,59.7,51.8,75,30.00,10.0,SW,6.9,-,N/A,,Clear,220,2013-02-12 02:35:00
9:55 PM,59.2,51.3,75,30.00,10.0,SW,6.9,-,N/A,,Clear,220,2013-02-12 02:55:00
10:15 PM,58.6,50.9,75,30.00,10.0,SW,4.6,-,N/A,,Clear,220,2013-02-12 03:15:00
10:35 PM,58.3,50.4,75,30.00,10.0,SW,4.6,-,N/A,,Clear,230,2013-02-12 03:35:00
10:55 PM,57.9,50.0,75,30.00,10.0,SW,4.6,-,N/A,,Clear,220,2013-02-12 03:55:00
11:15 PM,57.2,50.0,77,29.99,10.0,SW,4.6,-,N/A,,Clear,220,2013-02-12 04:15:00
11:35 PM,57.2,49.8,76,29.99,10.0,Calm,Calm,-,N/A,,Clear,0,2013-02-12 04:35:00
11:55 PM,56.5,49.8,78,30.00,10.0,Calm,Calm,-,N/A,,Clear,0,2013-02-12 04:55:00